カタログに戻る

TITAN 3C TRANSTAGE DEB

運用中VLEO
NORAD 1961·DEBRIS·🇺🇸 United States

打ち上げ Oct 15, 1965 から Cape Canaveral Space Force Station

Loading…

次のパス (今後24時間)

TLE

最新Source: Space-Track

元期: Sep 14, 2026, 14:37 UTC

1 01961U 65082GW  26257.60930165  .00005134  00000-0  24839-3 0  9992
2 01961  31.8551  68.8040 0002994  49.4560 310.6357 15.17199507257745

AllMySatでTITAN 3C TRANSTAGE DEBをリアルタイム追跡

Download on the App Store